{"data":{"norad_id":57418,"intl_designator":"2023-102Q","name":"STARLINK-30221","alt_names":[],"object_type":"PAYLOAD","status":"ACTIVE","operator":null,"country":"US","launch_date":"2023-07-20","launch_site_code":"AFWTR","launch_vehicle":null,"mission":null,"orbit_class":"UNKNOWN","rcs_meters":null,"size_class":null,"mass_kg":null,"dimensions":null,"purposes":["comms"],"wikipedia_slug":null,"has_3d_model":false,"image_url":null,"decayed_at":null,"tle_current":{"epoch":"2026-09-20T22:00:03.000096Z","epoch_age_seconds":91939,"freshness":"FRESH","line1":"1 57418U 23102Q   26263.91670139  .00574291  00000+0  56952-2 0  9994","line2":"2 57418  42.9990 226.2399 0001879 280.5275  74.5740 15.63168212  5857","mean_motion":15.63168212,"eccentricity":0.0001879,"inclination_deg":42.999,"raan_deg":226.2399,"arg_perigee_deg":280.5275,"mean_anomaly_deg":74.574,"bstar":0.0056952,"rev_number":585,"period_min":92.120604100411,"perigee_km":377.24252454829,"apogee_km":379.78167327966,"semimajor_km":6756.649098914,"source":"CELESTRAK","updated_at":"2026-09-21T09:00:33.625544Z"}}}